Flag for Spain Weather past 2 weeks in Sevilla, Spain

Now
82 °F

Clear.


Feels Like: 82 °F
Forecast: 65 / 99 °F
Wind: 2 mph from North

Location: Sevilla / San Pablo

Current Time: Jul 8, 2015 at 2:59:01 AM

Latest Report: Jul 8, 2015 at 1:00 AM


Visibility: 10 mi

Pressure: 29.95 "Hg

Humidity: 40%

Dew point: 55 °F

Location of SevillaLocation

Historic Weather in Sevilla — Graph

°F

Sevilla temperature yesterday

Maximum temperature yesterday: 106 °F (at 5:00 PM)
Minimum temperature yesterday: 72 °F (at 7:30 AM)
Average temperature yesterday: 92 °F

Past Weeks' High & Low Weather Summary

 TemperatureHumidityPressure
High106 °F (Jun 27, 4:30 PM)94% (Jul 1, 4:30 AM)30.12 "Hg (Jul 1, 4:30 AM)
Low61 °F (Jun 25, 7:30 AM)11% (Jun 26, 6:30 PM)29.89 "Hg (Jul 7, 6:30 PM)
Average84 °F41%30.01 "Hg
* Reported Jun 23 1:00 AM — Jul 8 1:00 AM, Sevilla, Weather by CustomWeather, © 2015

Note: Actual official high and low records may vary slightly from our data, if they occured in-between our weather recording intervals... More about our weather records

Advertising

Sevilla weather history for previous 24 hours

 ConditionsComfort  
Time TempWeatherWind HumidityBarometerVisibility
1:00 AM
Wed, Jul 8
82 °FClear.2 mph40%29.95 "Hg10 mi
12:30 AM84 °FPassing clouds.7 mph33%29.95 "HgN/A
11:30 PM
Tue, Jul 7
90 °FPassing clouds.6 mph26%29.95 "HgN/A
11:00 PM91 °FClear.6 mph21%29.92 "Hg10 mi
10:30 PM93 °FSunny.8 mph19%29.92 "Hg10 mi
10:00 PM95 °FPassing clouds.9 mph18%29.92 "HgN/A
9:30 PM99 °FPassing clouds.8 mph17%29.89 "HgN/A
9:00 PM100 °FPassing clouds.9 mph14%29.89 "HgN/A
8:30 PM100 °FSunny.10 mph15%29.89 "Hg10 mi
8:00 PM102 °FSunny.12 mph14%29.89 "Hg10 mi
7:30 PM104 °FSunny.14 mph14%29.89 "Hg10 mi
7:00 PM104 °FPassing clouds.14 mph14%29.89 "HgN/A
6:30 PM104 °FSunny.13 mph15%29.89 "Hg10 mi
6:00 PM106 °FPassing clouds.12 mph13%29.92 "HgN/A
5:30 PM106 °FPassing clouds.10 mph14%29.92 "HgN/A
5:00 PM106 °FPassing clouds.12 mph12%29.92 "HgN/A
4:30 PM104 °FPassing clouds.10 mph13%29.92 "HgN/A
4:00 PM104 °FPassing clouds.12 mph13%29.95 "HgN/A
3:30 PM104 °FPassing clouds.12 mph14%29.95 "HgN/A
3:00 PM104 °FPassing clouds.5 mph13%29.95 "HgN/A
2:30 PM104 °FPassing clouds.6 mph14%29.95 "HgN/A
2:00 PM102 °FSunny.2 mph14%29.95 "Hg10 mi
1:30 PM102 °FSunny.2 mph14%29.98 "Hg10 mi
1:00 PM100 °FSunny.3 mph16%29.98 "Hg10 mi
12:30 PM99 °FPassing clouds.6 mph19%29.98 "HgN/A
12:00 PM95 °FPassing clouds.7 mph25%29.98 "HgN/A
11:30 AM93 °FPassing clouds.5 mph30%29.98 "HgN/A
11:00 AM91 °FPassing clouds.6 mph32%29.98 "HgN/A
10:30 AM90 °FPassing clouds.5 mph31%29.98 "HgN/A
10:00 AM86 °FPassing clouds.6 mph38%29.98 "HgN/A
9:30 AM82 °FPassing clouds.5 mph45%29.98 "HgN/A
9:00 AM79 °FSunny.2 mph51%29.98 "Hg10 mi
8:30 AM77 °FSunny.No wind54%29.98 "Hg10 mi
8:00 AM73 °FClear.No wind61%29.98 "Hg10 mi
7:30 AM72 °FClear.2 mph65%29.98 "Hg10 mi
7:00 AM73 °FClear.1 mph61%29.98 "Hg10 mi
6:30 AM73 °FClear.2 mph61%29.98 "Hg10 mi
6:00 AM75 °FClear.No wind57%29.98 "Hg10 mi
5:30 AM75 °FClear.No wind57%29.98 "Hg10 mi
5:00 AM77 °FClear.1 mph54%29.98 "Hg10 mi
4:30 AM79 °FPassing clouds.3 mph48%29.98 "HgN/A
4:00 AM81 °FClear.2 mph45%29.98 "Hg10 mi
3:30 AM81 °FClear.1 mph45%29.98 "Hg10 mi
Weather by CustomWeather, © 2015

See weather overviewHow to use our weather pages